Ainsworth, NE

12:00 AM CDT on July 21, 2017 (GMT -0500)
Ainsworth Municipal

Weather History for KANW - July, 2013

Change the Weather History Date:

Saturday, July 20, 2013

  Actual Average Record
Temperature  
Mean Temperature 74 °F -  
Max Temperature 86 °F 85 °F 105 °F (2002)
Min Temperature 63 °F 61 °F 60 °F (2000)
Cooling Degree Days 10    
Growing Degree Days 24 (Base 50)    
Moisture  
Dew Point 59 °F    
Average Humidity 63    
Maximum Humidity 95    
Minimum Humidity 41    
Precipitation  
Precipitation 0.02 in - - ()
Sea Level Pressure  
Sea Level Pressure 29.97 in    
Wind  
Wind Speed 12 mph (SE)    
Max Wind Speed 23 mph    
Max Gust Speed 32 mph    
Visibility 10 miles    
Events Rain , Thunderstorm    
Averages and records for this station are not official NWS values.
T = Trace of Precipitation, MM = Missing Value Source: NWS Daily Summary

Daily Weather History Graph

Daily Weather History Graph

Search for Another Location

Airport or City:

Trip Planner

Search our weather history database for the weather conditions in past years. The results will help you decide how hot, cold, wet, or windy it might be!

Date:

Astronomy

Jul. 20, 2013 Rise Set
Actual Time 6:20 AM CDT 9:11 PM CDT
Civil Twilight 5:47 AM CDT 9:44 PM CDT
Nautical Twilight 5:05 AM CDT 10:26 PM CDT
Astronomical Twilight 4:16 AM CDT 11:15 PM CDT
Moon 7:16 PM CDT (7/20) 4:02 AM CDT (7/20)
Length of Visible Light 15h 57m
Length of Day
14h 51m
Waxing Gibbous, 94% of the Moon is Illuminated
Jul 20
Waxing Gibbous
Jul 22
Full
Jul 29
Last Quarter
Aug 6
New
Aug 14
First Quarter

Hourly Weather History & Observations

Time (CDT) Temp. Heat Index Dew Point Humidity Pressure Visibility Wind Dir Wind Speed Gust Speed Precip Events Conditions
12:15 AM 68.9 °F - 56.7 °F 65% 30.01 in 10.0 mi SE 8.1 mph - N/A   Clear
12:35 AM 69.1 °F - 55.9 °F 63% 30.00 in 10.0 mi SE 11.5 mph - N/A   Clear
12:55 AM 68.2 °F - 55.8 °F 64% 30.00 in 10.0 mi SE 8.1 mph - N/A   Clear
1:15 AM 68.2 °F - 56.3 °F 66% 29.99 in 10.0 mi SE 9.2 mph - N/A   Clear
1:35 AM 66.6 °F - 56.8 °F 71% 29.99 in 10.0 mi SSE 8.1 mph - N/A   Clear
1:55 AM 66.2 °F - 56.1 °F 70% 29.98 in 10.0 mi South 6.9 mph - N/A   Clear
2:15 AM 64.2 °F - 55.6 °F 73% 29.99 in 10.0 mi South 6.9 mph - N/A   Clear
2:35 AM 64.9 °F - 55.4 °F 71% 29.99 in 10.0 mi South 8.1 mph - N/A   Clear
2:55 AM 65.3 °F - 55.4 °F 70% 29.98 in 10.0 mi South 8.1 mph - N/A   Clear
3:15 AM 66.0 °F - 55.4 °F 69% 29.99 in 10.0 mi SSW 6.9 mph - N/A   Clear
3:35 AM 66.0 °F - 55.4 °F 69% 29.98 in 10.0 mi South 9.2 mph - N/A   Clear
3:55 AM 66.0 °F - 55.6 °F 69% 29.98 in 10.0 mi South 9.2 mph - N/A Thunderstorm Clear
4:15 AM 65.3 °F - 56.8 °F 74% 29.98 in 10.0 mi South 6.9 mph - N/A Thunderstorm Clear
4:35 AM 66.6 °F - 58.1 °F 74% 29.98 in 10.0 mi South 8.1 mph - N/A   Clear
4:55 AM 67.1 °F - 58.1 °F 73% 29.99 in 10.0 mi Calm Calm - N/A   Clear
5:15 AM 65.5 °F - 59.0 °F 80% 30.01 in 10.0 mi North 13.8 mph - N/A   Clear
5:35 AM 69.1 °F - 57.4 °F 66% 30.01 in 10.0 mi ENE 8.1 mph - N/A   Mostly Cloudy
5:55 AM 68.9 °F - 57.9 °F 68% 30.02 in 10.0 mi NE 17.3 mph 23.0 mph N/A   Overcast
6:15 AM 66.9 °F - 59.9 °F 78% 30.02 in 10.0 mi East 15.0 mph 19.6 mph N/A   Overcast
6:35 AM 65.3 °F - 60.4 °F 84% 30.03 in 10.0 mi East 10.4 mph - N/A   Mostly Cloudy
6:55 AM 64.4 °F - 60.8 °F 88% 30.02 in 10.0 mi East 11.5 mph 20.7 mph N/A   Mostly Cloudy
7:15 AM 64.4 °F - 60.8 °F 88% 30.02 in 10.0 mi East 8.1 mph - N/A   Mostly Cloudy
7:35 AM 64.4 °F - 60.8 °F 88% 30.02 in 10.0 mi East 9.2 mph - N/A Thunderstorm Thunderstorm
7:55 AM 64.8 °F - 60.4 °F 86% 30.04 in 10.0 mi NNE 8.1 mph - N/A Thunderstorm Overcast
8:15 AM 64.4 °F - 60.8 °F 88% 30.05 in 10.0 mi NE 23.0 mph 29.9 mph N/A Rain , Thunderstorm Light Thunderstorms and Rain
8:35 AM 63.1 °F - 61.0 °F 93% 30.04 in 10.0 mi East 17.3 mph - 0.02 in Rain , Thunderstorm Light Thunderstorms and Rain
8:55 AM 63.7 °F - 61.7 °F 93% 30.04 in 10.0 mi East 19.6 mph 25.3 mph 0.02 in Thunderstorm Thunderstorm
9:15 AM 63.7 °F - 61.7 °F 93% 30.05 in 10.0 mi East 12.7 mph 18.4 mph N/A Thunderstorm Mostly Cloudy
9:35 AM 63.5 °F - 62.1 °F 95% 30.04 in 10.0 mi East 12.7 mph - N/A Thunderstorm Thunderstorm
9:55 AM 64.6 °F - 62.4 °F 93% 30.03 in 10.0 mi ESE 10.4 mph - N/A   Scattered Clouds
10:15 AM 66.4 °F - 61.9 °F 85% 30.02 in 10.0 mi SE 13.8 mph - N/A   Scattered Clouds
10:35 AM 68.9 °F - 61.5 °F 77% 30.02 in 10.0 mi SE 15.0 mph - N/A   Clear
10:55 AM 72.9 °F - 60.4 °F 65% 30.01 in 10.0 mi SE 16.1 mph 20.7 mph N/A   Clear
11:15 AM 76.3 °F - 58.5 °F 54% 30.02 in 10.0 mi SE 17.3 mph - N/A Thunderstorm Scattered Clouds
11:35 AM 75.2 °F - 56.5 °F 52% 30.02 in 10.0 mi SE 18.4 mph 25.3 mph N/A Thunderstorm Scattered Clouds
11:55 AM 75.2 °F - 56.7 °F 52% 30.03 in 10.0 mi ESE 12.7 mph 17.3 mph N/A   Overcast
12:15 PM 75.0 °F - 58.8 °F 57% 30.01 in 10.0 mi SE 16.1 mph 21.9 mph N/A Thunderstorm Mostly Cloudy
12:35 PM 77.9 °F - 59.5 °F 53% 29.99 in 10.0 mi SE 17.3 mph 23.0 mph N/A   Clear
12:55 PM 78.6 °F - 56.8 °F 47% 29.98 in 10.0 mi SE 19.6 mph 25.3 mph N/A   Clear
1:15 PM 81.3 °F 81.3 °F 57.7 °F 44% 29.97 in 10.0 mi SE 18.4 mph 27.6 mph N/A   Clear
1:35 PM 81.5 °F 81.6 °F 58.5 °F 45% 29.96 in 10.0 mi SSE 18.4 mph 26.5 mph N/A   Clear
1:55 PM 83.3 °F 83.2 °F 59.0 °F 44% 29.96 in 10.0 mi SSE 20.7 mph 27.6 mph N/A   Clear
2:15 PM 83.7 °F 83.1 °F 57.6 °F 41% 29.96 in 10.0 mi SSE 18.4 mph 24.2 mph N/A   Clear
2:35 PM 85.3 °F 85.0 °F 60.1 °F 42% 29.95 in 10.0 mi South 18.4 mph 31.1 mph N/A   Clear
2:55 PM 84.9 °F 84.4 °F 58.8 °F 41% 29.94 in 10.0 mi SSE 23.0 mph 27.6 mph N/A   Clear
3:15 PM 86.0 °F 85.9 °F 60.3 °F 42% 29.93 in 10.0 mi SSE 21.9 mph 26.5 mph N/A   Clear
3:35 PM 85.1 °F 84.6 °F 58.8 °F 41% 29.93 in 10.0 mi SSE 21.9 mph 26.5 mph N/A   Clear
3:55 PM 84.2 °F 83.8 °F 59.0 °F 42% 29.93 in 10.0 mi SSE 21.9 mph 25.3 mph N/A   Clear
4:15 PM 85.6 °F 85.4 °F 59.9 °F 42% 29.92 in 10.0 mi SSE 18.4 mph 21.9 mph N/A   Clear
4:35 PM 85.6 °F 85.2 °F 59.7 °F 41% 29.93 in 10.0 mi South 19.6 mph 25.3 mph N/A   Clear
4:55 PM 86.0 °F 85.9 °F 60.4 °F 42% 29.93 in 10.0 mi SSE 15.0 mph - N/A   Clear
5:15 PM 86.2 °F 86.1 °F 60.8 °F 42% 29.92 in 10.0 mi SSE 13.8 mph 21.9 mph N/A   Clear
5:35 PM 85.5 °F 85.2 °F 60.3 °F 42% 29.92 in 10.0 mi SSE 15.0 mph 18.4 mph N/A   Scattered Clouds
5:55 PM 84.2 °F 84.4 °F 60.6 °F 45% 29.91 in 10.0 mi SSE 11.5 mph - N/A   Mostly Cloudy
6:15 PM 82.9 °F 83.2 °F 60.3 °F 46% 29.91 in 10.0 mi SE 10.4 mph - N/A   Mostly Cloudy
6:35 PM 82.6 °F 82.6 °F 59.5 °F 45% 29.89 in 10.0 mi SE 12.7 mph - N/A   Mostly Cloudy
6:55 PM 82.8 °F 82.8 °F 59.7 °F 45% 29.90 in 10.0 mi SE 9.2 mph - N/A   Overcast
7:15 PM 80.8 °F 81.4 °F 60.1 °F 49% 29.89 in 10.0 mi ESE 9.2 mph - N/A   Scattered Clouds
7:35 PM 79.7 °F - 60.8 °F 52% 29.94 in 10.0 mi East 3.5 mph - N/A   Mostly Cloudy
7:55 PM 78.4 °F - 59.7 °F 52% 29.90 in 10.0 mi SE 12.7 mph - N/A   Light Drizzle
8:15 PM 80.4 °F 81.0 °F 59.0 °F 48% 29.89 in 10.0 mi SSE 10.4 mph - N/A Thunderstorm Mostly Cloudy
8:35 PM 80.6 °F 81.2 °F 59.5 °F 49% 29.86 in 10.0 mi South 20.7 mph 32.2 mph N/A   Scattered Clouds
8:55 PM 79.9 °F - 59.2 °F 49% 29.87 in 10.0 mi SSE 15.0 mph 27.6 mph N/A   Clear
9:15 PM 78.8 °F - 57.6 °F 48% 29.88 in 10.0 mi South 15.0 mph 21.9 mph N/A   Clear
9:35 PM 77.9 °F - 57.7 °F 50% 29.87 in 10.0 mi South 18.4 mph - N/A   Scattered Clouds
9:55 PM 78.1 °F - 55.2 °F 45% 29.84 in 10.0 mi South 13.8 mph 32.2 mph N/A   Scattered Clouds
10:15 PM 76.6 °F - 55.9 °F 49% 29.91 in 10.0 mi NNW 5.8 mph - N/A   Clear
10:35 PM 73.9 °F - 61.5 °F 65% 29.94 in 10.0 mi NNW 5.8 mph - N/A   Clear
10:55 PM 71.4 °F - 63.1 °F 75% 29.96 in 10.0 mi North 8.1 mph - N/A   Clear
11:15 PM 70.5 °F - 64.2 °F 80% 29.96 in 10.0 mi NNW 4.6 mph - N/A   Clear
11:35 PM 70.2 °F - 64.2 °F 81% 29.97 in 10.0 mi North 11.5 mph - N/A   Clear
11:55 PM 71.2 °F - 63.1 °F 75% 29.97 in 10.0 mi North 6.9 mph - N/A   Clear